ETD723 RJSN-RJTT

Flight info

Callsign ETD723
Flight time 0h 41m
Altitude 34000
Route VIKET Y303 SASAP Y10 GODIN
Aircraft A319/M-SDE3FGHIRWY/LB1

Departure

Time 2026-05-04 17:47
Airport Niigata Airport (RJSN)

Arrival

Time 2026-05-04 18:29
Airport Tokyo Haneda International Airport (RJTT)
Time Latitude Longitude Altitude Speed Heading
2026-05-04 17:29 37.95306 139.11328 9 ft 0 kts 180°
2026-05-04 17:40 37.95315 139.11328 9 ft 4 kts 181°
2026-05-04 17:40 37.95341 139.11329 11 ft 4 kts 184°
2026-05-04 17:40 37.95368 139.11332 11 ft 4 kts 187°
2026-05-04 17:40 37.95395 139.11337 10 ft 4 kts 188°
2026-05-04 17:41 37.95422 139.11341 12 ft 4 kts 184°
2026-05-04 17:41 37.95447 139.11339 12 ft 4 kts 146°
2026-05-04 17:41 37.95454 139.11332 14 ft 0 kts 90°
2026-05-04 17:43 37.95454 139.11339 12 ft 3 kts 90°
2026-05-04 17:43 37.95454 139.11379 12 ft 7 kts 88°
2026-05-04 17:43 37.95454 139.11454 10 ft 10 kts 91°
2026-05-04 17:44 37.95452 139.11559 9 ft 13 kts 91°
2026-05-04 17:44 37.95445 139.11687 9 ft 16 kts 92°
2026-05-04 17:44 37.95438 139.11835 8 ft 18 kts 93°
2026-05-04 17:44 37.95430 139.12000 7 ft 20 kts 93°
2026-05-04 17:45 37.95422 139.12184 7 ft 22 kts 93°
2026-05-04 17:45 37.95439 139.12368 5 ft 18 kts 51°
2026-05-04 17:45 37.95501 139.12390 2 ft 0 kts 360°
2026-05-04 17:46 37.95505 139.12390 2 ft 3 kts 359°
2026-05-04 17:46 37.95571 139.12383 1 ft 10 kts 347°
2026-05-04 17:46 37.95583 139.12344 2 ft 0 kts 273°
2026-05-04 17:47 37.95585 139.12309 3 ft 21 kts 273°
2026-05-04 17:47 37.95604 139.11839 10 ft 84 kts 272°
2026-05-04 17:47 37.95634 139.10867 41 ft 135 kts 274°
2026-05-04 17:47 37.95672 139.09679 666 ft 132 kts 273°
2026-05-04 17:48 37.95714 139.08520 1351 ft 132 kts 275°
2026-05-04 17:48 37.95755 139.07362 1935 ft 141 kts 274°
2026-05-04 17:48 37.95808 139.06017 2315 ft 164 kts 274°
2026-05-04 17:48 37.95757 139.04468 2697 ft 192 kts 256°
2026-05-04 17:49 37.94870 139.03027 3192 ft 233 kts 217°
2026-05-04 17:49 37.93180 139.02505 3815 ft 270 kts 184°
2026-05-04 17:49 37.91277 139.02831 4830 ft 281 kts 171°
2026-05-04 17:49 37.89423 139.03702 5881 ft 291 kts 150°
2026-05-04 17:50 37.87929 139.05458 6906 ft 298 kts 124°
2026-05-04 17:50 37.87003 139.07819 7919 ft 301 kts 111°
2026-05-04 17:50 37.85999 139.10162 8886 ft 308 kts 127°
2026-05-04 17:50 37.84592 139.12224 9888 ft 312 kts 131°
2026-05-04 17:51 37.82971 139.14115 10481 ft 329 kts 147°
2026-05-04 17:51 37.80987 139.15758 10824 ft 352 kts 149°
2026-05-04 17:51 37.78921 139.17434 11705 ft 355 kts 150°
2026-05-04 17:51 37.76805 139.19143 12354 ft 366 kts 150°
2026-05-04 17:52 37.74629 139.20899 13030 ft 376 kts 151°
2026-05-04 17:52 37.72406 139.22701 13724 ft 384 kts 151°
2026-05-04 17:52 37.70140 139.24551 14341 ft 392 kts 152°
2026-05-04 17:52 37.67822 139.26448 14882 ft 402 kts 153°
2026-05-04 17:53 37.65460 139.28382 15439 ft 407 kts 154°
2026-05-04 17:53 37.63079 139.30327 15998 ft 408 kts 155°
2026-05-04 17:53 37.60690 139.32281 16645 ft 408 kts 155°
2026-05-04 17:53 37.58317 139.34263 17365 ft 410 kts 156°
2026-05-04 17:54 37.55817 139.35823 18010 ft 393 kts 173°
2026-05-04 17:54 37.53209 139.36753 18679 ft 385 kts 179°
2026-05-04 17:54 37.50601 139.37599 19323 ft 397 kts 171°
2026-05-04 17:54 37.48140 139.39395 20023 ft 424 kts 152°
2026-05-04 17:55 37.45956 139.41952 20761 ft 427 kts 150°
2026-05-04 17:55 37.43579 139.43937 21481 ft 394 kts 169°
2026-05-04 17:55 37.41054 139.44790 22262 ft 362 kts 187°
2026-05-04 17:55 37.38561 139.45065 22973 ft 359 kts 189°
2026-05-04 17:56 37.36058 139.45585 23685 ft 379 kts 176°
2026-05-04 17:56 37.33647 139.47139 24248 ft 413 kts 158°
2026-05-04 17:56 37.31562 139.49816 24825 ft 438 kts 143°
2026-05-04 17:56 37.29642 139.52796 25407 ft 443 kts 140°
2026-05-04 17:57 37.27907 139.56033 25986 ft 449 kts 137°
2026-05-04 17:57 37.26138 139.59240 26446 ft 438 kts 144°
2026-05-04 17:57 37.24043 139.61862 26955 ft 415 kts 157°
2026-05-04 17:57 37.21718 139.63862 27484 ft 401 kts 164°
2026-05-04 17:58 37.19376 139.65759 28015 ft 404 kts 162°
2026-05-04 17:58 37.17219 139.68205 28572 ft 431 kts 149°
2026-05-04 17:58 37.15225 139.71021 29115 ft 432 kts 148°
2026-05-04 17:58 37.13258 139.73855 29645 ft 430 kts 147°
2026-05-04 17:59 37.11294 139.76677 30204 ft 426 kts 150°
2026-05-04 17:59 37.09275 139.79352 30691 ft 421 kts 152°
2026-05-04 17:59 37.04899 139.83649 30510 ft 390 kts 168°
2026-05-04 18:00 37.02457 139.85192 30140 ft 397 kts 172°
2026-05-04 18:00 36.99973 139.86756 29941 ft 399 kts 169°
2026-05-04 18:00 36.97564 139.88412 29850 ft 388 kts 168°
2026-05-04 18:01 36.92839 139.91799 29852 ft 405 kts 168°
2026-05-04 18:01 36.90355 139.93558 29864 ft 416 kts 167°
2026-05-04 18:01 36.87798 139.95353 29864 ft 427 kts 167°
2026-05-04 18:02 36.79933 140.00893 29163 ft 436 kts 167°
2026-05-04 18:02 36.77256 140.02774 27982 ft 445 kts 166°
2026-05-04 18:02 36.74546 140.04673 27100 ft 446 kts 165°
2026-05-04 18:03 36.71844 140.06569 26279 ft 445 kts 165°
2026-05-04 18:03 36.69154 140.08456 25535 ft 443 kts 164°
2026-05-04 18:03 36.66474 140.10333 24818 ft 442 kts 163°
2026-05-04 18:03 36.63794 140.12204 24125 ft 440 kts 163°
2026-05-04 18:04 36.61134 140.14055 23569 ft 435 kts 163°
2026-05-04 18:04 36.58486 140.15895 22581 ft 436 kts 163°
2026-05-04 18:04 36.53173 140.19572 20664 ft 437 kts 162°
2026-05-04 18:05 36.50554 140.21387 19771 ft 436 kts 162°
2026-05-04 18:05 36.47910 140.23221 19022 ft 432 kts 161°
2026-05-04 18:05 36.45325 140.25030 18707 ft 417 kts 162°
2026-05-04 18:05 36.42784 140.26516 18365 ft 389 kts 173°
2026-05-04 18:06 36.37824 140.27022 17690 ft 342 kts 193°
2026-05-04 18:06 36.35453 140.27089 17343 ft 338 kts 188°
2026-05-04 18:06 36.33130 140.27262 17004 ft 330 kts 187°
2026-05-04 18:07 36.30862 140.27462 16672 ft 323 kts 187°
2026-05-04 18:07 36.28634 140.27663 16331 ft 319 kts 187°
2026-05-04 18:07 36.26422 140.27856 16010 ft 317 kts 187°
2026-05-04 18:07 36.24223 140.28042 15664 ft 316 kts 187°
2026-05-04 18:08 36.22028 140.28225 15343 ft 316 kts 187°
2026-05-04 18:08 36.19836 140.28404 15026 ft 316 kts 187°
2026-05-04 18:08 36.17645 140.28585 14713 ft 315 kts 187°
2026-05-04 18:08 36.15487 140.28763 14408 ft 314 kts 187°
2026-05-04 18:09 36.11127 140.29120 13984 ft 313 kts 187°
2026-05-04 18:09 36.06783 140.29471 13529 ft 312 kts 187°
2026-05-04 18:10 36.04615 140.29645 13455 ft 312 kts 186°
2026-05-04 18:10 36.02442 140.29818 13454 ft 313 kts 186°
2026-05-04 18:10 36.00266 140.29993 13455 ft 313 kts 186°
2026-05-04 18:10 35.98089 140.30170 13455 ft 313 kts 186°
2026-05-04 18:11 35.95914 140.30351 13454 ft 313 kts 186°
2026-05-04 18:11 35.93740 140.30532 13454 ft 313 kts 186°
2026-05-04 18:11 35.91567 140.30710 13450 ft 313 kts 186°
2026-05-04 18:11 35.89395 140.30889 13450 ft 313 kts 186°
2026-05-04 18:12 35.87220 140.31067 13451 ft 313 kts 186°
2026-05-04 18:12 35.85046 140.31245 13479 ft 313 kts 186°
2026-05-04 18:12 35.82872 140.31423 13482 ft 313 kts 186°
2026-05-04 18:12 35.80698 140.31600 13480 ft 313 kts 186°
2026-05-04 18:13 35.78522 140.31778 13480 ft 313 kts 186°
2026-05-04 18:13 35.76346 140.31956 13481 ft 313 kts 186°
2026-05-04 18:13 35.71993 140.32310 13481 ft 313 kts 186°
2026-05-04 18:14 35.69819 140.32484 13477 ft 313 kts 186°
2026-05-04 18:14 35.67640 140.32657 13444 ft 314 kts 186°
2026-05-04 18:14 35.65452 140.32833 13383 ft 316 kts 186°
2026-05-04 18:15 35.61119 140.33192 12563 ft 312 kts 185°
2026-05-04 18:15 35.57127 140.32446 11752 ft 272 kts 214°
2026-05-04 18:15 35.55671 140.31100 11427 ft 254 kts 229°
2026-05-04 18:16 35.54442 140.29590 11100 ft 246 kts 228°
2026-05-04 18:16 35.53252 140.28130 10776 ft 238 kts 228°
2026-05-04 18:16 35.52083 140.26695 10467 ft 238 kts 228°
2026-05-04 18:17 35.49721 140.23801 9755 ft 240 kts 227°
2026-05-04 18:17 35.48534 140.22347 9373 ft 243 kts 227°
2026-05-04 18:17 35.46153 140.19424 8581 ft 241 kts 228°
2026-05-04 18:18 35.44977 140.17978 8183 ft 238 kts 228°
2026-05-04 18:18 35.43808 140.16552 7784 ft 236 kts 226°
2026-05-04 18:18 35.42496 140.15325 7361 ft 238 kts 218°
2026-05-04 18:18 35.41122 140.14193 6943 ft 237 kts 219°
2026-05-04 18:19 35.38675 140.11625 6097 ft 230 kts 232°
2026-05-04 18:19 35.37600 140.10169 5661 ft 230 kts 233°
2026-05-04 18:19 35.36519 140.08705 5224 ft 227 kts 233°
2026-05-04 18:20 35.35476 140.07292 4802 ft 225 kts 233°
2026-05-04 18:20 35.34432 140.05876 4372 ft 225 kts 233°
2026-05-04 18:20 35.33378 140.04447 4009 ft 225 kts 234°
2026-05-04 18:20 35.32361 140.03069 3980 ft 213 kts 236°
2026-05-04 18:21 35.31618 140.01599 3976 ft 192 kts 255°
2026-05-04 18:21 35.31308 140.00093 3982 ft 176 kts 271°
2026-05-04 18:21 35.31354 139.98640 3986 ft 168 kts 285°
2026-05-04 18:21 35.31707 139.97299 3987 ft 165 kts 299°
2026-05-04 18:22 35.32336 139.96132 4006 ft 167 kts 313°
2026-05-04 18:22 35.33209 139.95205 3983 ft 167 kts 327°
2026-05-04 18:22 35.34218 139.94488 3987 ft 169 kts 330°
2026-05-04 18:22 35.35236 139.93769 3981 ft 168 kts 327°
2026-05-04 18:23 35.36233 139.93065 3966 ft 163 kts 327°
2026-05-04 18:23 35.36880 139.92609 3886 ft 159 kts 327°
2026-05-04 18:23 35.37828 139.91939 3724 ft 156 kts 327°
2026-05-04 18:23 35.38763 139.91279 3533 ft 155 kts 327°
2026-05-04 18:24 35.39989 139.90413 3267 ft 150 kts 328°
2026-05-04 18:24 35.40876 139.89786 3080 ft 144 kts 328°
2026-05-04 18:24 35.41458 139.89375 2952 ft 141 kts 329°
2026-05-04 18:24 35.42298 139.88781 2766 ft 137 kts 329°
2026-05-04 18:25 35.43082 139.88227 2590 ft 125 kts 329°
2026-05-04 18:25 35.43823 139.87703 2424 ft 119 kts 330°
2026-05-04 18:25 35.44521 139.87209 2263 ft 116 kts 331°
2026-05-04 18:25 35.45222 139.86713 2099 ft 117 kts 330°
2026-05-04 18:26 35.45923 139.86216 1945 ft 115 kts 331°
2026-05-04 18:26 35.46617 139.85725 1799 ft 114 kts 332°
2026-05-04 18:26 35.47312 139.85233 1634 ft 117 kts 332°
2026-05-04 18:26 35.48013 139.84737 1492 ft 117 kts 332°
2026-05-04 18:27 35.48719 139.84237 1331 ft 117 kts 331°
2026-05-04 18:27 35.49426 139.83736 1173 ft 117 kts 332°
2026-05-04 18:27 35.50134 139.83235 1010 ft 119 kts 332°
2026-05-04 18:27 35.50849 139.82726 837 ft 118 kts 332°
2026-05-04 18:28 35.51557 139.82222 684 ft 117 kts 332°
2026-05-04 18:28 35.52259 139.81729 540 ft 115 kts 332°
2026-05-04 18:28 35.52949 139.81235 399 ft 114 kts 332°
2026-05-04 18:28 35.53642 139.80745 233 ft 115 kts 330°
2026-05-04 18:29 35.54334 139.80255 55 ft 113 kts 331°
2026-05-04 18:29 35.54891 139.79863 26 ft 68 kts 330°
2026-05-04 18:29 35.55156 139.79673 26 ft 29 kts 330°
2026-05-04 18:29 35.55345 139.79535 25 ft 29 kts 323°
2026-05-04 18:30 35.55519 139.79259 23 ft 14 kts 294°
2026-05-04 18:30 35.55512 139.79162 25 ft 9 kts 235°
2026-05-04 18:30 35.55479 139.79106 24 ft 7 kts 234°
2026-05-04 18:31 35.55460 139.79068 24 ft 0 kts 240°
2026-05-04 18:31 35.55438 139.79013 25 ft 11 kts 243°
2026-05-04 18:31 35.55411 139.78947 24 ft 8 kts 242°
2026-05-04 18:32 35.55360 139.78929 24 ft 8 kts 175°
2026-05-04 18:32 35.55325 139.78947 24 ft 3 kts 146°
2026-05-04 18:32 35.55325 139.78964 24 ft 3 kts 80°
2026-05-04 18:32 35.55343 139.79001 26 ft 5 kts 59°
2026-05-04 18:33 35.55349 139.79017 25 ft 0 kts 65°
2026-05-04 18:33 35.55352 139.79025 24 ft 0 kts 66°
2026-05-04 18:33 35.55353 139.79027 24 ft 0 kts 66°